LEVTLEXJ

Guest
Details From LEVT - Vitoria
To LEXJ - Santander
Flight Number -
Tags generated
Created
Modified
Stats Distance 59 nm / 110 km
Max Altitude 5,800 ft / 1,768 m
Waypoints 3
Social Downloads 1
Likes 0
Share VATSIM

Download

Looking for another format? Having issues loading an existing format? Contact us
Advertisement - Login to hide

Notes

Basic altitude profile: - Ascent Rate: 2500ft/min - Ascent Speed: 250kts - Cruise Altitude: 35000ft - Cruise Speed: 420kts - Descent Rate: 1500ft/min - Descent Speed: 250kts Options: - Use NATs: yes - Use PACOTS: yes - Use low airways: yes - Use high airways: yes

Route

LEVT ROLES LEXJ

ID Type Via Altitude Latitude Longitude Leg Dist Tot Dist Heading (true) Name
O LEVT APT - 0 ft / 0 m 42.88285˚ -2.72446˚ - 0 nm - Vitoria
ROLES FIX - 5,800 ft / 1,768 m 43.09910˚ -3.39120˚ 32 nm 32 nm 294° / 294° -
O LEXJ APT - 0 ft / 0 m 43.42719˚ -3.82047˚ 27 nm 59 nm 317° / 316° Santander

Altitude Profile

Advertisement - Login to hide

LEVT

Details ICAO LEVT (VIT)
Name Vitoria
Region Spain
Timezone Europe/Madrid (UTC+1.0)
Stats Elevation 1,682 ft / 513 m (AMSL)
Location 42.882847° -2.724460°
Runways 1
Magnetic Variation 0.547° W

METAR

LEVT 181300Z VRB02KT 9999 BKN023 08/03 Q1030

Decode

TAF

TAF LEVT 181100Z 1812/1912 32009KT 9999 SCT015 BKN025 TX09/1813Z TN01/1908Z TEMPO 1818/1824 35015G30KT TEMPO 1812/1824 3000 RA BKN008 BKN014 PROB30 TEMPO 1900/1909 0250 FG VV001

Decode

Departure Runways

ID Width Length Bearing (true) Bearing (mag) Surface Threshold Offset Overrun Length
04 148 ft / 45 m 11,481 ft / 3,500 m 35.83° 36.38° Asphalt 0 ft / 0 m 164 ft / 50 m
22 148 ft / 45 m 11,481 ft / 3,500 m 215.85° 216.40° Asphalt 0 ft / 0 m 164 ft / 50 m

LEXJ

Details ICAO LEXJ (SDR)
Name Santander
Region Spain
Timezone Europe/Madrid (UTC+1.0)
Stats Elevation 16 ft / 5 m (AMSL)
Location 43.427188° -3.820470°
Runways 1
Magnetic Variation 0.912° W

METAR

LEXJ 181300Z 24007KT 9999 FEW020 OVC026 11/06 Q1031

Decode

TAF

TAF LEXJ 180800Z 1809/1909 22005KT 9999 BKN030 TX13/1822Z TN05/1907Z BECMG 1812/1816 29010KT TEMPO 1812/1821 29015G30KT TEMPO 1812/1824 3000 RA BKN010 BKN014 PROB40 TEMPO 1821/1906 1500 BR BCFG BKN002

Decode

Destination Runways

ID Width Length Bearing (true) Bearing (mag) Surface Threshold Offset Overrun Length
11 148 ft / 45 m 7,597 ft / 2,316 m 110.20° 111.11° Asphalt 0 ft / 0 m 98 ft / 30 m
29 148 ft / 45 m 7,597 ft / 2,316 m 290.22° 291.13° Asphalt 0 ft / 0 m 0 ft / 0 m

Approach Navaids

Runway Type Ident Frequency Range Bearing (true) Bearing (mag) Slope Elevation
29 Localiser STA 110.90 MHz 18 nm / 33 km 290.19° 291.10° - 16 ft / 5 m (AMSL)
29 Glidescope STA 110.90 MHz 10 nm / 19 km 290.21° 291.12° 3.00° 16 ft / 5 m (AMSL)
29 DME STA 110.90 MHz 18 nm / 33 km - - - 26 ft / 8 m (AMSL)

Popular Alternatives